User: anonymous
Location: Columbia
(38.9520°N, 92.3340°W)
Time: 16:16:27
(UTC-05:00)
Language:

Cosmos 2100 Rocket - Orbit

View from above orbital plane
View from above orbital plane
View from above satellite
View from above satellite

Ground track
Ground track

The orbit data is extracted from the following two-line orbital elements,

1 20805U 90083B   14243.69617100  .00000121  00000-0  10882-3 0  8118
2 20805 082.9344 098.5323 0030469 006.5972 057.0217 13.75716359203080
Epoch (UTC): 31 August 2014 16:42:29
Eccentricity: 0.0030469
inclination: 82.9344°
perigee height: 957 km
apogee height: 1001 km
right ascension of ascending node: 98.5323°
argument of perigee: 6.5972°
revolutions per day: 13.75716359
mean anomaly at epoch: 57.0217°
orbit number at epoch: 20308

The dashed part of the orbit path shows where the satellite is in the earth's shadow,  

DLR